K3RTA Weather Reports


time (UTC)temp
C
wind
direction
speed
KPH
gust
KPH
rain 1hr
cm
rain 24hr
cm
rain mn
cm
humidity
%
barometer
mb
20260504202005 23 187 0.0 4.8 0.00 0.00 0.00 32 1008.9
20260504194004 22 268 1.6 19.3 0.00 0.00 0.00 32 1009.6
20260504193004 22 236 1.6 24.1 0.00 0.00 0.00 32 1009.8
20260504192005 22 265 0.0 11.3 0.00 0.00 0.00 33 1009.9
20260504191005 22 276 1.6 20.9 0.00 0.00 0.00 32 1009.9
20260504190004 21 285 3.2 19.3 0.00 0.00 0.00 33 1010.1
20260504185005 22 268 1.6 20.9 0.00 0.00 0.00 33 1010.1
20260504184004 21 284 1.6 25.7 0.00 0.00 0.00 34 1010.2
20260504180005 21 288 0.0 19.3 0.00 0.00 0.00 33 1010.6
20260504175004 21 285 3.2 22.5 0.00 0.00 0.00 33 1010.7
20260504174005 20 287 1.6 11.3 0.00 0.00 0.00 33 1010.9
20260504173004 21 271 0.0 14.5 0.00 0.00 0.00 32 1011.1
20260504172005 20 269 3.2 19.3 0.00 0.00 0.00 32 1011.3
20260504171005 20 244 0.0 4.8 0.00 0.00 0.00 31 1011.5
20260504151004 18 281 0.0 16.1 0.00 0.00 0.00 43 1012.6
20260504141005 17 164 0.0 4.8 0.00 0.00 0.00 48 1012.9
20260504082004 6 255 0.0 0.0 0.00 0.00 0.00 81 1014.1
20260504081005 6 255 0.0 0.0 0.00 0.00 0.00 81 1014.1
20260504050004 7 190 0.0 0.0 0.00 0.00 0.00 73 1014.0
20260504043004 6 260 0.0 0.0 0.00 0.00 0.00 77 1013.9
20260504042004 6 260 0.0 0.0 0.00 0.00 0.00 78 1013.8
20260504041004 6 260 0.0 0.0 0.00 0.00 0.00 78 1013.7
20260504034004 6 260 0.0 0.0 0.00 0.00 0.00 76 1013.4
20260504033004 6 260 0.0 0.0 0.00 0.00 0.00 74 1013.4
20260504032005 6 260 0.0 0.0 0.00 0.00 0.00 74 1013.3
20260504031004 7 260 0.0 0.0 0.00 0.00 0.00 73 1013.3
20260504030004 7 260 0.0 0.0 0.00 0.00 0.00 72 1013.2
20260504024004 7 260 0.0 0.0 0.00 0.00 0.00 69 1013.2
20260504023004 7 260 0.0 0.0 0.00 0.00 0.00 68 1013.3
20260504021005 8 260 0.0 0.0 0.00 0.00 0.00 65 1013.3
20260504020004 8 260 0.0 0.0 0.00 0.00 0.00 63 1013.2
20260504015004 8 260 0.0 0.0 0.00 0.00 0.00 61 1013.2
20260504014004 8 260 0.0 0.0 0.00 0.00 0.00 61 1013.1
20260504013005 9 260 0.0 0.0 0.00 0.00 0.00 58 1013.0
20260504011004 10 260 0.0 0.0 0.00 0.00 0.00 55 1012.9
20260504010004 10 260 0.0 0.0 0.00 0.00 0.00 53 1012.8
20260504005004 11 260 0.0 0.0 0.00 0.00 0.00 51 1012.6
20260504004005 11 260 0.0 0.0 0.00 0.00 0.00 49 1012.5
20260504003004 12 260 0.0 0.0 0.00 0.00 0.00 46 1012.4
20260504002004 12 260 0.0 0.0 0.00 0.00 0.00 41 1012.3
20260504001004 13 260 0.0 0.0 0.00 0.00 0.00 39 1012.1
20260504000004 13 260 0.0 0.0 0.00 0.00 0.00 37 1012.0
20260503235004 14 283 0.0 0.0 0.00 0.00 0.00 35 1011.9
20260503234004 15 281 0.0 0.0 0.00 0.00 0.00 34 1011.9
20260503233004 15 269 0.0 0.0 0.00 0.00 0.00 34 1011.8
20260503232004 16 292 0.0 3.2 0.00 0.00 0.00 32 1011.9
20260503231004 16 290 0.0 1.6 0.00 0.00 0.00 31 1011.8
20260503230004 16 267 0.0 4.8 0.00 0.00 0.00 30 1011.7
20260503225004 16 290 0.0 4.8 0.00 0.00 0.00 32 1011.6
20260503224004 16 293 1.6 11.3 0.00 0.00 0.00 30 1011.7
20260503223004 16 298 0.0 4.8 0.00 0.00 0.00 30 1011.8
20260503222004 16 65 0.0 3.2 0.00 0.00 0.00 30 1011.7
20260503221004 16 310 0.0 14.5 0.00 0.00 0.00 30 1011.8
20260503215004 16 286 1.6 24.1 0.00 0.00 0.00 30 1011.8
20260503213006 16 278 1.6 19.3 0.00 0.00 0.00 28 1011.7
20260503212004 16 297 1.6 24.1 0.00 0.00 0.00 30 1011.7
20260503211004 16 283 3.2 22.5 0.00 0.00 0.00 29 1011.7
20260503210005 16 299 0.0 14.5 0.00 0.00 0.00 30 1011.6
20260503205004 16 284 0.0 19.3 0.00 0.00 0.00 31 1011.7
20260503204004 15 294 0.0 16.1 0.00 0.00 0.00 31 1011.8
20260503203004 15 285 3.2 11.3 0.00 0.00 0.00 32 1011.9